Time,TemperatureF,DewpointF,PressureIn,WindDirection,WindDirectionDegrees,WindSpeedMPH,WindSpeedGustMPH,Humidity,HourlyPrecipIn,Conditions,Clouds,dailyrainin,SoftwareType,DateUTC
2013-02-10 00:03:00,43.1,40.7,29.65,South,170,9.5,15.6,91,0.00,,,-99.99,Meteorologica,2013-02-10 06:03:00,
2013-02-10 00:08:00,43.1,40.7,29.65,SSE,166,6.3,14.9,91,0.00,,,-99.99,Meteorologica,2013-02-10 06:08:00,
2013-02-10 00:13:00,43.1,40.9,29.65,SSE,166,6.3,11.4,91,0.00,,,-99.99,Meteorologica,2013-02-10 06:13:00,
2013-02-10 00:18:00,43.0,40.9,29.66,ESE,115,8.8,15.9,92,0.00,,,-99.99,Meteorologica,2013-02-10 06:18:00,
2013-02-10 00:23:00,42.9,40.9,29.66,South,172,7.7,13.5,92,0.00,,,-99.99,Meteorologica,2013-02-10 06:23:00,
2013-02-10 00:28:00,42.8,40.9,29.64,SSW,196,6.6,16.2,93,0.00,,,-99.99,Meteorologica,2013-02-10 06:28:00,
2013-02-10 00:33:00,42.5,40.8,29.61,SSE,159,10.4,12.9,93,0.00,,,-99.99,Meteorologica,2013-02-10 06:33:00,
2013-02-10 00:38:00,42.5,40.9,29.62,South,172,7.1,15.9,94,0.00,,,-99.99,Meteorologica,2013-02-10 06:38:00,
2013-02-10 00:43:00,42.4,40.8,29.60,SSE,148,9.4,19.3,94,0.00,,,-99.99,Meteorologica,2013-02-10 06:43:00,
2013-02-10 00:48:00,42.5,40.9,29.62,ENE,73,4.3,14.6,94,0.00,,,-99.99,Meteorologica,2013-02-10 06:48:00,
2013-02-10 00:53:00,42.5,40.9,29.62,South,188,7.0,11.5,94,0.00,,,-99.99,Meteorologica,2013-02-10 06:53:00,
2013-02-10 00:58:00,42.5,40.9,29.61,ESE,105,7.3,13.5,94,0.00,,,-99.99,Meteorologica,2013-02-10 06:58:00,
2013-02-10 01:03:00,42.5,40.9,29.60,South,170,6.3,12.3,94,0.00,,,-99.99,Meteorologica,2013-02-10 07:03:00,
2013-02-10 01:08:00,42.6,41.0,29.60,SSW,194,6.8,12.8,94,0.00,,,-99.99,Meteorologica,2013-02-10 07:08:00,
2013-02-10 01:13:00,42.6,41.0,29.60,South,188,6.5,12.5,94,0.00,,,-99.99,Meteorologica,2013-02-10 07:13:00,
2013-02-10 01:18:00,42.6,41.0,29.60,SSW,209,6.6,15.7,94,0.00,,,-99.99,Meteorologica,2013-02-10 07:18:00,
2013-02-10 01:23:00,42.7,41.2,29.60,SSW,201,8.1,13.9,94,0.00,,,-99.99,Meteorologica,2013-02-10 07:23:00,
2013-02-10 01:28:00,42.8,41.3,29.59,SSE,148,7.3,14.3,94,0.00,,,-99.99,Meteorologica,2013-02-10 07:28:00,
2013-02-10 01:33:00,42.8,41.3,29.59,South,190,7.3,18.5,94,0.00,,,-99.99,Meteorologica,2013-02-10 07:33:00,
2013-02-10 01:38:00,42.9,41.3,29.58,SSW,199,8.5,15.7,94,0.00,,,-99.99,Meteorologica,2013-02-10 07:38:00,
2013-02-10 01:43:00,42.8,41.3,29.57,South,191,9.0,15.4,94,0.00,,,-99.99,Meteorologica,2013-02-10 07:43:00,
2013-02-10 01:48:00,42.9,41.4,29.57,SE,135,7.7,15.0,94,0.00,,,-99.99,Meteorologica,2013-02-10 07:48:00,
2013-02-10 01:53:00,43.0,41.5,29.57,SSE,167,9.1,14.8,94,0.00,,,-99.99,Meteorologica,2013-02-10 07:53:00,
2013-02-10 01:58:00,43.0,41.5,29.57,SSE,165,7.2,17.2,94,0.00,,,-99.99,Meteorologica,2013-02-10 07:58:00,
2013-02-10 02:03:00,43.0,41.5,29.57,SSW,193,8.1,15.0,94,0.00,,,-99.99,Meteorologica,2013-02-10 08:03:00,
2013-02-10 02:08:00,43.3,41.8,29.56,ESE,111,9.5,16.7,94,0.00,,,-99.99,Meteorologica,2013-02-10 08:08:00,
2013-02-10 02:13:00,43.5,42.0,29.55,SE,135,7.6,18.1,94,0.00,,,-99.99,Meteorologica,2013-02-10 08:13:00,
2013-02-10 02:18:00,43.6,42.1,29.54,South,171,9.4,14.7,94,0.00,,,-99.99,Meteorologica,2013-02-10 08:18:00,
2013-02-10 02:23:00,43.7,42.2,29.53,South,180,8.7,16.1,94,0.00,,,-99.99,Meteorologica,2013-02-10 08:23:00,
2013-02-10 02:28:00,43.9,42.4,29.52,SE,139,6.4,14.3,94,0.00,,,-99.99,Meteorologica,2013-02-10 08:28:00,
2013-02-10 02:33:00,44.1,42.6,29.51,SSE,160,7.9,13.5,94,0.00,,,-99.99,Meteorologica,2013-02-10 08:33:00,
2013-02-10 02:38:00,44.1,42.6,29.51,SSW,198,7.9,15.5,94,0.00,,,-99.99,Meteorologica,2013-02-10 08:38:00,
2013-02-10 02:43:00,44.3,42.8,29.51,South,187,5.2,12.1,94,0.00,,,-99.99,Meteorologica,2013-02-10 08:43:00,
2013-02-10 02:48:00,44.3,42.8,29.51,South,179,11.5,19.4,94,0.00,,,-99.99,Meteorologica,2013-02-10 08:48:00,
2013-02-10 02:53:00,44.6,43.0,29.50,SE,136,7.5,22.3,94,0.00,,,-99.99,Meteorologica,2013-02-10 08:53:00,
2013-02-10 02:58:00,44.7,43.1,29.50,South,181,7.5,13.3,94,0.00,,,-99.99,Meteorologica,2013-02-10 08:58:00,
2013-02-10 03:03:00,44.8,43.2,29.50,SSE,151,10.9,19.2,94,0.00,,,-99.99,Meteorologica,2013-02-10 09:03:00,
2013-02-10 03:08:00,45.0,43.3,29.49,SE,141,9.6,19.2,93,0.00,,,-99.99,Meteorologica,2013-02-10 09:08:00,
2013-02-10 03:13:00,45.2,43.5,29.48,South,182,6.7,17.1,93,0.00,,,-99.99,Meteorologica,2013-02-10 09:13:00,
2013-02-10 03:18:00,45.1,43.4,29.49,SSE,165,8.9,13.4,93,0.00,,,-99.99,Meteorologica,2013-02-10 09:18:00,
2013-02-10 03:23:00,45.4,43.7,29.49,SW,215,7.2,15.7,94,0.00,,,-99.99,Meteorologica,2013-02-10 09:23:00,
2013-02-10 03:28:00,45.4,43.7,29.49,SW,215,10.9,22.2,94,0.00,,,-99.99,Meteorologica,2013-02-10 09:28:00,
2013-02-10 03:33:00,45.7,44.0,29.49,SW,215,9.7,18.5,93,0.00,,,-99.99,Meteorologica,2013-02-10 09:33:00,
2013-02-10 03:38:00,45.8,44.1,29.49,South,180,8.2,16.7,93,0.00,,,-99.99,Meteorologica,2013-02-10 09:38:00,
2013-02-10 03:43:00,45.8,44.0,29.48,SSW,213,9.2,21.5,93,0.00,,,-99.99,Meteorologica,2013-02-10 09:43:00,
2013-02-10 03:48:00,46.0,44.2,29.48,South,178,9.1,22.2,93,0.00,,,-99.99,Meteorologica,2013-02-10 09:48:00,
2013-02-10 03:53:00,46.0,44.2,29.45,SSE,163,6.0,18.6,93,0.00,,,-99.99,Meteorologica,2013-02-10 09:53:00,
2013-02-10 03:58:00,46.0,44.2,29.43,SSW,199,9.2,17.3,93,0.00,,,-99.99,Meteorologica,2013-02-10 09:58:00,
2013-02-10 04:03:00,46.0,44.2,29.44,South,191,7.9,23.3,93,0.00,,,-99.99,Meteorologica,2013-02-10 10:03:00,
2013-02-10 04:08:00,46.2,44.4,29.43,South,173,7.2,18.6,93,0.00,,,-99.99,Meteorologica,2013-02-10 10:08:00,
2013-02-10 04:13:00,46.3,44.5,29.42,South,170,11.2,16.9,93,0.00,,,-99.99,Meteorologica,2013-02-10 10:13:00,
2013-02-10 04:18:00,46.4,44.5,29.43,SE,135,8.5,17.2,93,0.00,,,-99.99,Meteorologica,2013-02-10 10:18:00,
2013-02-10 04:23:00,46.5,44.6,29.43,SSW,198,6.9,15.1,93,0.00,,,-99.99,Meteorologica,2013-02-10 10:23:00,
2013-02-10 04:28:00,46.4,44.4,29.42,SSE,153,8.9,16.1,93,0.00,,,-99.99,Meteorologica,2013-02-10 10:28:00,
2013-02-10 04:33:00,46.6,44.6,29.41,SSE,168,10.7,18.2,92,0.00,,,-99.99,Meteorologica,2013-02-10 10:33:00,
2013-02-10 04:38:00,46.7,44.6,29.41,SSW,206,10.9,20.0,92,0.00,,,-99.99,Meteorologica,2013-02-10 10:38:00,
2013-02-10 04:43:00,46.8,44.7,29.41,South,180,9.1,18.1,92,0.00,,,-99.99,Meteorologica,2013-02-10 10:43:00,
2013-02-10 04:48:00,46.7,44.6,29.41,South,179,8.5,15.7,92,0.00,,,-99.99,Meteorologica,2013-02-10 10:48:00,
2013-02-10 04:53:00,46.8,44.7,29.40,SSW,210,9.2,19.2,92,0.00,,,-99.99,Meteorologica,2013-02-10 10:53:00,
2013-02-10 04:59:00,46.8,44.7,29.41,South,170,11.7,14.9,92,0.00,,,-99.99,Meteorologica,2013-02-10 10:59:00,
2013-02-10 05:04:00,46.8,44.6,29.41,SSW,192,10.8,12.3,92,0.00,,,-99.99,Meteorologica,2013-02-10 11:04:00,
2013-02-10 05:09:00,47.0,44.8,29.40,South,178,7.6,9.5,92,0.00,,,-99.99,Meteorologica,2013-02-10 11:09:00,
2013-02-10 05:14:00,46.9,44.7,29.40,South,174,6.7,8.4,92,0.00,,,-99.99,Meteorologica,2013-02-10 11:14:00,
2013-02-10 05:19:00,46.9,44.7,29.39,ESE,109,9.8,9.8,91,0.00,,,-99.99,Meteorologica,2013-02-10 11:19:00,
2013-02-10 05:24:00,46.9,44.6,29.39,South,184,7.8,9.9,91,0.00,,,-99.99,Meteorologica,2013-02-10 11:24:00,
2013-02-10 05:29:00,46.9,44.5,29.39,SSE,164,10.0,11.2,91,0.00,,,-99.99,Meteorologica,2013-02-10 11:29:00,
2013-02-10 05:34:00,47.0,44.5,29.38,SSE,156,9.9,19.0,91,0.00,,,-99.99,Meteorologica,2013-02-10 11:34:00,
2013-02-10 05:39:00,46.8,44.3,29.39,South,169,13.9,19.5,91,0.00,,,-99.99,Meteorologica,2013-02-10 11:39:00,
2013-02-10 05:44:00,47.1,44.6,29.38,South,189,8.6,10.0,91,0.00,,,-99.99,Meteorologica,2013-02-10 11:44:00,
2013-02-10 05:49:00,46.9,44.3,29.37,South,186,11.3,15.1,90,0.00,,,-99.99,Meteorologica,2013-02-10 11:49:00,
2013-02-10 05:54:00,47.1,44.5,29.38,SSW,212,9.7,11.0,90,0.00,,,-99.99,Meteorologica,2013-02-10 11:54:00,
2013-02-10 05:59:00,47.0,44.4,29.37,SSW,205,10.3,11.6,90,0.00,,,-99.99,Meteorologica,2013-02-10 11:59:00,
2013-02-10 06:04:00,46.8,44.2,29.37,South,187,10.4,13.5,90,0.00,,,-99.99,Meteorologica,2013-02-10 12:04:00,
2013-02-10 06:09:00,46.7,44.2,29.38,SSW,199,12.5,16.7,91,0.00,,,-99.99,Meteorologica,2013-02-10 12:09:00,
2013-02-10 06:14:00,46.9,44.4,29.38,SSE,166,6.4,9.4,91,0.00,,,-99.99,Meteorologica,2013-02-10 12:14:00,
2013-02-10 06:19:00,46.8,44.2,29.38,SW,228,8.7,10.4,90,0.00,,,-99.99,Meteorologica,2013-02-10 12:19:00,
2013-02-10 06:24:00,46.6,43.9,29.37,SSW,204,7.9,12.2,90,0.00,,,-99.99,Meteorologica,2013-02-10 12:24:00,
2013-02-10 06:29:00,46.4,43.8,29.37,SSW,207,11.9,16.0,90,0.00,,,-99.99,Meteorologica,2013-02-10 12:29:00,
2013-02-10 06:34:00,46.5,43.8,29.37,SSW,213,7.9,9.8,90,0.00,,,-99.99,Meteorologica,2013-02-10 12:34:00,
2013-02-10 06:39:00,46.3,43.7,29.37,SW,220,10.0,18.3,90,0.00,,,-99.99,Meteorologica,2013-02-10 12:39:00,
2013-02-10 06:44:00,46.2,43.6,29.37,SSW,200,11.2,12.9,90,0.00,,,-99.99,Meteorologica,2013-02-10 12:44:00,
2013-02-10 06:49:00,46.3,43.7,29.37,SW,226,10.3,13.6,90,0.00,,,-99.99,Meteorologica,2013-02-10 12:49:00,
2013-02-10 06:54:00,46.3,43.7,29.38,SSW,212,7.2,8.7,90,0.00,,,-99.99,Meteorologica,2013-02-10 12:54:00,
2013-02-10 06:59:00,46.3,43.6,29.36,WSW,245,7.4,8.9,90,0.00,,,-99.99,Meteorologica,2013-02-10 12:59:00,
2013-02-10 07:04:00,46.2,43.3,29.37,South,189,7.9,8.9,89,0.00,,,-99.99,Meteorologica,2013-02-10 13:04:00,
2013-02-10 07:09:00,46.4,43.0,29.36,South,187,10.0,13.0,88,0.00,,,-99.99,Meteorologica,2013-02-10 13:09:00,
2013-02-10 07:14:00,46.3,42.7,29.36,SSW,207,11.1,17.1,87,0.00,,,-99.99,Meteorologica,2013-02-10 13:14:00,
2013-02-10 07:19:00,46.4,42.8,29.37,SW,216,10.8,14.6,87,0.00,,,-99.99,Meteorologica,2013-02-10 13:19:00,
2013-02-10 07:24:00,46.4,42.5,29.36,SSW,200,8.5,17.1,86,0.00,,,-99.99,Meteorologica,2013-02-10 13:24:00,
2013-02-10 07:29:00,46.3,40.3,29.36,SW,226,16.8,24.2,79,0.00,,,-99.99,Meteorologica,2013-02-10 13:29:00,
2013-02-10 07:34:00,46.0,40.4,29.37,SW,215,11.9,19.5,80,0.00,,,-99.99,Meteorologica,2013-02-10 13:34:00,
2013-02-10 07:39:00,45.7,39.6,29.36,SSW,209,11.8,14.5,79,0.00,,,-99.99,Meteorologica,2013-02-10 13:39:00,
2013-02-10 07:44:00,45.1,38.4,29.36,SW,214,10.0,17.4,77,0.00,,,-99.99,Meteorologica,2013-02-10 13:44:00,
2013-02-10 07:49:00,44.9,38.0,29.37,WSW,241,7.3,10.2,76,0.00,,,-99.99,Meteorologica,2013-02-10 13:49:00,
2013-02-10 07:54:00,43.8,36.4,29.37,SW,214,10.5,12.0,74,0.00,,,-99.99,Meteorologica,2013-02-10 13:54:00,
2013-02-10 07:59:00,43.5,36.2,29.37,WSW,243,10.0,15.3,75,0.00,,,-99.99,Meteorologica,2013-02-10 13:59:00,
2013-02-10 08:04:00,42.8,36.5,29.37,SSW,197,6.3,9.4,78,0.00,,,-99.99,Meteorologica,2013-02-10 14:04:00,
2013-02-10 08:09:00,42.0,36.3,29.37,SW,215,7.6,7.7,79,0.00,,,-99.99,Meteorologica,2013-02-10 14:09:00,
2013-02-10 08:14:00,41.5,36.1,29.37,SW,221,10.5,14.3,81,0.00,,,-99.99,Meteorologica,2013-02-10 14:14:00,
2013-02-10 08:19:00,41.1,35.9,29.37,SW,226,12.0,13.2,81,0.00,,,-99.99,Meteorologica,2013-02-10 14:19:00,
2013-02-10 08:24:00,41.1,36.2,29.37,SW,228,9.5,12.3,82,0.00,,,-99.99,Meteorologica,2013-02-10 14:24:00,
2013-02-10 08:29:00,40.8,35.6,29.37,SW,227,10.6,15.4,81,0.00,,,-99.99,Meteorologica,2013-02-10 14:29:00,
2013-02-10 08:34:00,40.4,35.2,29.37,West,266,6.7,9.4,81,0.00,,,-99.99,Meteorologica,2013-02-10 14:34:00,
2013-02-10 08:39:00,40.6,35.1,29.38,SW,234,6.8,9.2,80,0.00,,,-99.99,Meteorologica,2013-02-10 14:39:00,
2013-02-10 08:44:00,40.7,35.2,29.38,West,272,7.7,15.5,80,0.00,,,-99.99,Meteorologica,2013-02-10 14:44:00,
2013-02-10 08:49:00,40.5,35.0,29.38,West,281,8.0,9.3,80,0.00,,,-99.99,Meteorologica,2013-02-10 14:49:00,
2013-02-10 08:54:00,40.7,35.4,29.37,WSW,241,5.9,10.2,81,0.00,,,-99.99,Meteorologica,2013-02-10 14:54:00,
2013-02-10 09:00:00,40.4,35.0,29.38,SW,234,9.2,13.1,80,0.00,,,-99.99,Meteorologica,2013-02-10 15:00:00,
2013-02-10 09:05:00,40.1,34.6,29.38,WSW,246,9.2,12.6,80,0.00,,,-99.99,Meteorologica,2013-02-10 15:05:00,
2013-02-10 09:10:00,40.3,34.9,29.38,WSW,255,7.0,19.2,80,0.00,,,-99.99,Meteorologica,2013-02-10 15:10:00,
2013-02-10 09:15:00,39.6,34.3,29.38,WSW,239,8.5,24.1,81,0.00,,,-99.99,Meteorologica,2013-02-10 15:15:00,
2013-02-10 09:20:00,39.9,34.9,29.37,WSW,255,12.9,19.5,82,0.00,,,-99.99,Meteorologica,2013-02-10 15:20:00,
2013-02-10 09:25:00,39.4,33.8,29.38,WSW,239,9.3,18.3,80,0.00,,,-99.99,Meteorologica,2013-02-10 15:25:00,
2013-02-10 09:30:00,39.3,32.6,29.38,SW,231,7.7,12.2,76,0.00,,,-99.99,Meteorologica,2013-02-10 15:30:00,
2013-02-10 09:35:00,38.7,31.9,29.38,SW,217,9.9,18.3,76,0.00,,,-99.99,Meteorologica,2013-02-10 15:35:00,
2013-02-10 09:41:00,38.7,32.0,29.38,SW,229,10.4,17.3,76,0.00,,,-99.99,Meteorologica,2013-02-10 15:41:00,
2013-02-10 09:46:00,39.1,32.2,29.37,SW,227,10.3,17.8,76,0.00,,,-99.99,Meteorologica,2013-02-10 15:46:00,
2013-02-10 09:51:00,39.6,33.4,29.37,West,268,7.0,19.3,78,0.00,,,-99.99,Meteorologica,2013-02-10 15:51:00,
2013-02-10 09:56:00,39.5,32.2,29.37,West,273,11.4,19.8,74,0.00,,,-99.99,Meteorologica,2013-02-10 15:56:00,
2013-02-10 10:01:00,39.3,32.0,29.38,SSW,207,9.7,18.4,74,0.00,,,-99.99,Meteorologica,2013-02-10 16:01:00,
2013-02-10 10:06:00,39.5,32.4,29.38,SSW,200,8.9,16.9,75,0.00,,,-99.99,Meteorologica,2013-02-10 16:06:00,
2013-02-10 10:11:00,39.8,32.8,29.38,West,265,12.3,23.3,75,0.00,,,-99.99,Meteorologica,2013-02-10 16:11:00,
2013-02-10 10:16:00,39.6,32.4,29.38,West,278,7.1,18.0,74,0.00,,,-99.99,Meteorologica,2013-02-10 16:16:00,
2013-02-10 10:21:00,39.1,32.3,29.39,WSW,252,10.3,17.7,76,0.00,,,-99.99,Meteorologica,2013-02-10 16:21:00,
2013-02-10 10:26:00,39.5,32.0,29.39,West,266,15.2,24.2,75,0.00,,,-99.99,Meteorologica,2013-02-10 16:26:00,
2013-02-10 10:31:00,39.7,32.0,29.38,West,270,10.4,18.8,73,0.00,,,-99.99,Meteorologica,2013-02-10 16:31:00,
2013-02-10 10:36:00,39.9,33.2,29.39,WNW,295,8.3,16.8,76,0.00,,,-99.99,Meteorologica,2013-02-10 16:36:00,
2013-02-10 10:41:00,39.9,33.1,29.39,WSW,257,12.5,23.9,76,0.00,,,-99.99,Meteorologica,2013-02-10 16:41:00,
2013-02-10 10:46:00,39.3,32.3,29.39,SSW,208,13.0,20.5,75,0.00,,,-99.99,Meteorologica,2013-02-10 16:46:00,
2013-02-10 10:51:00,39.4,32.7,29.39,WSW,242,8.9,23.4,76,0.00,,,-99.99,Meteorologica,2013-02-10 16:51:00,
2013-02-10 10:56:00,39.4,32.5,29.39,WSW,251,7.9,15.4,76,0.00,,,-99.99,Meteorologica,2013-02-10 16:56:00,
2013-02-10 11:01:00,39.4,32.6,29.39,WSW,246,9.4,16.4,76,0.00,,,-99.99,Meteorologica,2013-02-10 17:01:00,
2013-02-10 11:06:00,39.7,33.0,29.39,WSW,248,11.5,23.6,76,0.00,,,-99.99,Meteorologica,2013-02-10 17:06:00,
2013-02-10 11:11:00,40.1,33.3,29.39,West,267,11.4,20.8,76,0.00,,,-99.99,Meteorologica,2013-02-10 17:11:00,
2013-02-10 11:16:00,39.8,32.8,29.40,SW,236,12.7,25.5,75,0.00,,,-99.99,Meteorologica,2013-02-10 17:16:00,
2013-02-10 11:21:00,40.0,33.5,29.40,SW,231,11.9,27.5,77,0.00,,,-99.99,Meteorologica,2013-02-10 17:21:00,
2013-02-10 11:26:00,39.9,33.2,29.40,WSW,253,14.3,24.5,77,0.00,,,-99.99,Meteorologica,2013-02-10 17:26:00,
2013-02-10 11:31:00,40.2,33.9,29.40,West,271,9.5,21.2,77,0.00,,,-99.99,Meteorologica,2013-02-10 17:31:00,
2013-02-10 11:36:00,39.9,33.4,29.40,WSW,241,8.2,17.1,76,0.00,,,-99.99,Meteorologica,2013-02-10 17:36:00,
2013-02-10 11:41:00,40.0,33.5,29.41,WSW,252,11.8,18.8,77,0.00,,,-99.99,Meteorologica,2013-02-10 17:41:00,
2013-02-10 11:46:00,39.8,33.4,29.41,WSW,248,15.2,24.0,77,0.00,,,-99.99,Meteorologica,2013-02-10 17:46:00,
2013-02-10 11:51:00,39.8,33.8,29.41,West,264,8.6,15.2,78,0.00,,,-99.99,Meteorologica,2013-02-10 17:51:00,
2013-02-10 11:56:00,40.0,34.0,29.41,West,274,12.8,22.3,78,0.00,,,-99.99,Meteorologica,2013-02-10 17:56:00,
2013-02-10 12:01:00,39.8,33.8,29.41,WNW,295,9.2,20.3,78,0.00,,,-99.99,Meteorologica,2013-02-10 18:01:00,
2013-02-10 12:07:00,39.9,34.1,29.41,West,267,8.3,26.2,79,0.00,,,-99.99,Meteorologica,2013-02-10 18:07:00,
2013-02-10 12:12:00,40.1,34.0,29.41,West,278,13.3,21.3,78,0.00,,,-99.99,Meteorologica,2013-02-10 18:12:00,
2013-02-10 12:17:00,40.3,34.3,29.42,West,264,10.4,18.5,78,0.00,,,-99.99,Meteorologica,2013-02-10 18:17:00,
2013-02-10 12:22:00,40.3,34.1,29.42,SW,232,10.0,25.4,78,0.00,,,-99.99,Meteorologica,2013-02-10 18:22:00,
2013-02-10 12:27:00,40.2,34.3,29.42,West,272,15.2,29.0,79,0.00,,,-99.99,Meteorologica,2013-02-10 18:27:00,
2013-02-10 12:32:00,39.8,33.9,29.42,WSW,250,11.7,30.4,79,0.00,,,-99.99,Meteorologica,2013-02-10 18:32:00,
2013-02-10 12:37:00,39.8,33.7,29.42,West,273,8.6,22.2,78,0.00,,,-99.99,Meteorologica,2013-02-10 18:37:00,
2013-02-10 12:42:00,39.7,33.6,29.43,West,265,14.5,28.7,78,0.00,,,-99.99,Meteorologica,2013-02-10 18:42:00,
2013-02-10 12:47:00,40.0,33.9,29.43,West,264,7.6,18.8,78,0.00,,,-99.99,Meteorologica,2013-02-10 18:47:00,
2013-02-10 12:52:00,40.1,34.1,29.43,West,281,10.3,22.7,78,0.00,,,-99.99,Meteorologica,2013-02-10 18:52:00,
2013-02-10 12:57:00,40.0,33.9,29.43,West,264,11.4,30.8,78,0.00,,,-99.99,Meteorologica,2013-02-10 18:57:00,
2013-02-10 13:02:00,40.1,33.9,29.43,West,273,11.6,22.9,78,0.00,,,-99.99,Meteorologica,2013-02-10 19:02:00,
2013-02-10 13:07:00,40.2,33.3,29.44,WNW,292,17.7,26.7,76,0.00,,,-99.99,Meteorologica,2013-02-10 19:07:00,
2013-02-10 13:12:00,40.5,33.7,29.44,West,269,11.9,25.8,76,0.00,,,-99.99,Meteorologica,2013-02-10 19:12:00,
2013-02-10 13:17:00,40.4,33.6,29.44,West,262,12.0,23.7,76,0.00,,,-99.99,Meteorologica,2013-02-10 19:17:00,
2013-02-10 13:22:00,40.4,33.5,29.44,West,278,13.6,27.0,76,0.00,,,-99.99,Meteorologica,2013-02-10 19:22:00,
2013-02-10 13:27:00,40.2,33.3,29.45,West,275,13.1,21.8,75,0.00,,,-99.99,Meteorologica,2013-02-10 19:27:00,
2013-02-10 13:32:00,40.5,33.6,29.46,West,280,11.7,16.4,76,0.00,,,-99.99,Meteorologica,2013-02-10 19:32:00,
2013-02-10 13:37:00,40.4,33.2,29.46,WNW,295,10.7,22.8,75,0.00,,,-99.99,Meteorologica,2013-02-10 19:37:00,
2013-02-10 13:42:00,40.1,32.9,29.47,West,279,14.7,25.0,75,0.00,,,-99.99,Meteorologica,2013-02-10 19:42:00,
2013-02-10 13:47:00,40.1,32.8,29.47,West,263,12.2,25.0,74,0.00,,,-99.99,Meteorologica,2013-02-10 19:47:00,
2013-02-10 13:52:00,40.0,32.8,29.47,WNW,287,11.7,20.8,75,0.00,,,-99.99,Meteorologica,2013-02-10 19:52:00,
2013-02-10 13:57:00,40.1,33.0,29.48,WNW,296,12.5,23.7,75,0.00,,,-99.99,Meteorologica,2013-02-10 19:57:00,
2013-02-10 14:02:00,39.8,32.6,29.48,WNW,293,12.7,21.7,75,0.00,,,-99.99,Meteorologica,2013-02-10 20:02:00,
2013-02-10 14:07:00,39.7,32.6,29.49,NW,305,13.9,23.0,75,0.00,,,-99.99,Meteorologica,2013-02-10 20:07:00,
2013-02-10 14:12:00,39.3,32.1,29.49,West,264,16.8,28.9,75,0.00,,,-99.99,Meteorologica,2013-02-10 20:12:00,
2013-02-10 14:17:00,39.3,32.6,29.50,West,263,10.7,22.9,76,0.00,,,-99.99,Meteorologica,2013-02-10 20:17:00,
2013-02-10 14:22:00,39.1,32.3,29.50,WNW,292,12.7,23.7,76,0.00,,,-99.99,Meteorologica,2013-02-10 20:22:00,
2013-02-10 14:27:00,39.2,32.7,29.50,WNW,287,9.2,22.9,77,0.00,,,-99.99,Meteorologica,2013-02-10 20:27:00,
2013-02-10 14:32:00,38.9,32.2,29.51,WNW,293,11.3,21.6,76,0.00,,,-99.99,Meteorologica,2013-02-10 20:32:00,
2013-02-10 14:37:00,39.0,32.4,29.51,WNW,294,11.4,20.3,76,0.00,,,-99.99,Meteorologica,2013-02-10 20:37:00,
2013-02-10 14:42:00,38.6,31.7,29.51,West,281,13.2,21.9,76,0.00,,,-99.99,Meteorologica,2013-02-10 20:42:00,
2013-02-10 14:47:00,38.8,31.9,29.52,WNW,298,11.8,20.3,76,0.00,,,-99.99,Meteorologica,2013-02-10 20:47:00,
2013-02-10 14:52:00,38.8,32.1,29.52,WNW,303,9.5,24.1,76,0.00,,,-99.99,Meteorologica,2013-02-10 20:52:00,
2013-02-10 14:57:00,38.7,31.9,29.52,West,261,11.5,18.7,76,0.00,,,-99.99,Meteorologica,2013-02-10 20:57:00,
2013-02-10 15:02:00,38.7,31.8,29.53,WNW,286,9.6,21.3,75,0.00,,,-99.99,Meteorologica,2013-02-10 21:02:00,
2013-02-10 15:07:00,38.7,32.0,29.53,WSW,242,11.0,20.1,76,0.00,,,-99.99,Meteorologica,2013-02-10 21:07:00,
2013-02-10 15:12:00,38.5,31.8,29.54,WNW,284,12.6,18.2,76,0.00,,,-99.99,Meteorologica,2013-02-10 21:12:00,
2013-02-10 15:17:00,38.6,31.9,29.54,NW,306,12.1,23.2,76,0.00,,,-99.99,Meteorologica,2013-02-10 21:17:00,
2013-02-10 15:22:00,38.5,31.6,29.55,WNW,301,11.8,22.3,75,0.00,,,-99.99,Meteorologica,2013-02-10 21:22:00,
2013-02-10 15:28:00,38.6,31.8,29.56,West,264,12.3,20.3,76,0.00,,,-99.99,Meteorologica,2013-02-10 21:28:00,
2013-02-10 15:33:00,38.5,31.8,29.56,WNW,290,11.0,22.3,76,0.00,,,-99.99,Meteorologica,2013-02-10 21:33:00,
2013-02-10 15:38:00,38.5,31.7,29.56,WNW,290,12.0,23.4,76,0.00,,,-99.99,Meteorologica,2013-02-10 21:38:00,
2013-02-10 15:43:00,38.5,31.7,29.57,NW,304,10.9,19.7,76,0.00,,,-99.99,Meteorologica,2013-02-10 21:43:00,
2013-02-10 15:48:00,38.4,31.8,29.58,WNW,295,9.3,17.4,76,0.00,,,-99.99,Meteorologica,2013-02-10 21:48:00,
2013-02-10 15:53:00,38.3,31.7,29.58,West,276,10.7,19.8,76,0.00,,,-99.99,Meteorologica,2013-02-10 21:53:00,
2013-02-10 15:59:00,38.3,31.5,29.59,WNW,288,10.8,14.4,76,0.00,,,-99.99,Meteorologica,2013-02-10 21:59:00,
2013-02-10 16:04:00,38.2,31.3,29.59,WNW,303,13.9,13.9,75,0.00,,,-99.99,Meteorologica,2013-02-10 22:04:00,
2013-02-10 16:09:00,37.9,30.9,29.59,West,267,11.9,15.4,75,0.00,,,-99.99,Meteorologica,2013-02-10 22:09:00,
2013-02-10 16:14:00,37.9,31.0,29.59,NW,313,12.4,12.4,75,0.00,,,-99.99,Meteorologica,2013-02-10 22:14:00,
2013-02-10 16:19:00,37.9,30.9,29.60,WNW,295,12.5,14.5,75,0.00,,,-99.99,Meteorologica,2013-02-10 22:19:00,
2013-02-10 16:24:00,37.8,30.8,29.61,WNW,302,12.7,18.6,75,0.00,,,-99.99,Meteorologica,2013-02-10 22:24:00,
2013-02-10 16:29:00,37.7,31.3,29.61,WNW,302,11.4,11.4,77,0.00,,,-99.99,Meteorologica,2013-02-10 22:29:00,
2013-02-10 16:34:00,37.0,31.2,29.62,WNW,302,11.5,14.8,79,0.00,,,-99.99,Meteorologica,2013-02-10 22:34:00,
2013-02-10 16:39:00,36.3,32.2,29.63,WNW,282,12.8,16.4,84,0.00,,,-99.99,Meteorologica,2013-02-10 22:39:00,
2013-02-10 16:44:00,35.6,32.8,29.64,WNW,294,9.8,18.2,89,0.00,,,-99.99,Meteorologica,2013-02-10 22:44:00,
2013-02-10 16:49:00,35.2,32.7,29.64,WNW,301,9.0,10.0,90,0.00,,,-99.99,Meteorologica,2013-02-10 22:49:00,
2013-02-10 16:54:00,35.4,32.1,29.65,WNW,289,9.3,12.2,87,0.00,,,-99.99,Meteorologica,2013-02-10 22:54:00,
2013-02-10 16:59:00,35.9,31.8,29.65,NW,312,7.8,9.1,84,0.00,,,-99.99,Meteorologica,2013-02-10 22:59:00,
2013-02-10 17:04:00,36.5,31.1,29.65,West,279,9.6,9.6,80,0.00,,,-99.99,Meteorologica,2013-02-10 23:04:00,
2013-02-10 17:09:00,36.7,31.1,29.65,WNW,299,10.6,16.0,80,0.00,,,-99.99,Meteorologica,2013-02-10 23:09:00,
2013-02-10 17:14:00,36.8,30.9,29.65,WNW,302,9.0,11.5,78,0.00,,,-99.99,Meteorologica,2013-02-10 23:14:00,
2013-02-10 17:19:00,36.9,30.7,29.66,NW,306,11.0,13.9,78,0.00,,,-99.99,Meteorologica,2013-02-10 23:19:00,
2013-02-10 17:24:00,36.8,30.4,29.66,West,275,13.1,14.6,77,0.00,,,-99.99,Meteorologica,2013-02-10 23:24:00,
2013-02-10 17:29:00,36.7,30.4,29.66,NW,308,8.8,11.3,77,0.00,,,-99.99,Meteorologica,2013-02-10 23:29:00,
2013-02-10 17:34:00,36.8,30.6,29.66,NW,318,8.0,10.4,78,0.00,,,-99.99,Meteorologica,2013-02-10 23:34:00,
2013-02-10 17:39:00,36.8,30.3,29.67,West,281,9.7,12.5,76,0.00,,,-99.99,Meteorologica,2013-02-10 23:39:00,
2013-02-10 17:44:00,36.6,29.2,29.67,SSW,195,10.7,13.8,74,0.00,,,-99.99,Meteorologica,2013-02-10 23:44:00,
2013-02-10 17:50:00,36.7,29.2,29.68,WNW,295,9.5,14.7,73,0.00,,,-99.99,Meteorologica,2013-02-10 23:50:00,
2013-02-10 17:55:00,36.8,29.6,29.68,WNW,288,7.8,12.6,74,0.00,,,-99.99,Meteorologica,2013-02-10 23:55:00,
2013-02-10 18:00:00,36.8,29.3,29.69,WNW,298,9.3,14.3,74,0.00,,,-99.99,Meteorologica,2013-02-11 00:00:00,
2013-02-10 18:05:00,36.7,29.2,29.69,NW,306,9.7,13.5,73,0.00,,,-99.99,Meteorologica,2013-02-11 00:05:00,
2013-02-10 18:10:00,36.8,29.1,29.70,NW,308,8.7,15.0,73,0.00,,,-99.99,Meteorologica,2013-02-11 00:10:00,
2013-02-10 18:15:00,36.8,28.8,29.70,WNW,291,11.7,19.2,72,0.00,,,-99.99,Meteorologica,2013-02-11 00:15:00,
2013-02-10 18:20:00,36.6,28.8,29.71,NW,321,8.9,18.4,72,0.00,,,-99.99,Meteorologica,2013-02-11 00:20:00,
2013-02-10 18:25:00,36.4,28.9,29.72,WNW,302,8.7,13.6,73,0.00,,,-99.99,Meteorologica,2013-02-11 00:25:00,
2013-02-10 18:30:00,36.4,28.9,29.72,NW,313,7.8,12.3,73,0.00,,,-99.99,Meteorologica,2013-02-11 00:30:00,
2013-02-10 18:35:00,36.5,29.0,29.72,WNW,302,6.5,11.1,73,0.00,,,-99.99,Meteorologica,2013-02-11 00:35:00,
2013-02-10 18:40:00,36.5,29.1,29.72,WNW,303,6.1,12.7,74,0.00,,,-99.99,Meteorologica,2013-02-11 00:40:00,
2013-02-10 18:45:00,36.8,29.4,29.72,West,277,8.6,11.9,74,0.00,,,-99.99,Meteorologica,2013-02-11 00:45:00,
2013-02-10 18:50:00,36.8,29.4,29.73,WNW,294,9.3,14.6,74,0.00,,,-99.99,Meteorologica,2013-02-11 00:50:00,
2013-02-10 18:55:00,36.9,28.9,29.73,WNW,298,12.7,19.9,72,0.00,,,-99.99,Meteorologica,2013-02-11 00:55:00,
2013-02-10 19:00:00,37.0,29.4,29.74,West,281,10.9,17.2,73,0.00,,,-99.99,Meteorologica,2013-02-11 01:00:00,
2013-02-10 19:05:00,37.1,29.6,29.74,WNW,303,9.1,16.4,74,0.00,,,-99.99,Meteorologica,2013-02-11 01:05:00,
2013-02-10 19:10:00,37.1,29.3,29.74,WNW,289,10.7,20.6,73,0.00,,,-99.99,Meteorologica,2013-02-11 01:10:00,
2013-02-10 19:15:00,37.2,29.2,29.75,WNW,299,9.2,13.0,72,0.00,,,-99.99,Meteorologica,2013-02-11 01:15:00,
2013-02-10 19:20:00,37.1,28.9,29.75,WNW,301,11.2,16.3,71,0.00,,,-99.99,Meteorologica,2013-02-11 01:20:00,
2013-02-10 19:25:00,37.1,28.9,29.76,WNW,303,9.2,15.4,71,0.00,,,-99.99,Meteorologica,2013-02-11 01:25:00,
2013-02-10 19:30:00,37.2,28.9,29.76,WNW,302,9.6,19.5,71,0.00,,,-99.99,Meteorologica,2013-02-11 01:30:00,
2013-02-10 19:35:00,37.1,28.8,29.77,WNW,303,10.9,23.8,71,0.00,,,-99.99,Meteorologica,2013-02-11 01:35:00,
2013-02-10 19:40:00,37.2,29.2,29.78,NW,304,8.4,12.8,72,0.00,,,-99.99,Meteorologica,2013-02-11 01:40:00,
2013-02-10 19:45:00,37.0,28.5,29.78,NW,308,9.1,14.4,70,0.00,,,-99.99,Meteorologica,2013-02-11 01:45:00,
2013-02-10 19:50:00,36.9,28.4,29.78,WNW,289,9.8,15.7,70,0.00,,,-99.99,Meteorologica,2013-02-11 01:50:00,
2013-02-10 19:55:00,36.6,28.4,29.79,WNW,297,8.8,13.8,71,0.00,,,-99.99,Meteorologica,2013-02-11 01:55:00,
2013-02-10 20:00:00,36.5,28.6,29.80,WNW,298,8.5,16.4,72,0.00,,,-99.99,Meteorologica,2013-02-11 02:00:00,
2013-02-10 20:05:00,36.1,28.6,29.79,WNW,302,8.7,15.9,73,0.00,,,-99.99,Meteorologica,2013-02-11 02:05:00,
2013-02-10 20:10:00,36.2,29.0,29.80,WNW,293,6.6,9.2,74,0.00,,,-99.99,Meteorologica,2013-02-11 02:10:00,
2013-02-10 20:15:00,36.3,29.2,29.80,WNW,282,7.9,11.5,75,0.00,,,-99.99,Meteorologica,2013-02-11 02:15:00,
2013-02-10 20:20:00,36.1,29.1,29.80,NW,310,10.1,13.9,75,0.00,,,-99.99,Meteorologica,2013-02-11 02:20:00,
2013-02-10 20:25:00,36.3,29.2,29.81,WNW,295,7.4,12.5,75,0.00,,,-99.99,Meteorologica,2013-02-11 02:25:00,
2013-02-10 20:30:00,36.5,29.5,29.82,NW,307,7.2,10.9,75,0.00,,,-99.99,Meteorologica,2013-02-11 02:30:00,
2013-02-10 20:35:00,36.6,29.3,29.83,WNW,297,10.8,19.9,74,0.00,,,-99.99,Meteorologica,2013-02-11 02:35:00,
2013-02-10 20:40:00,36.8,29.5,29.83,NW,311,8.4,12.8,74,0.00,,,-99.99,Meteorologica,2013-02-11 02:40:00,
2013-02-10 20:45:00,36.7,29.3,29.83,NW,305,11.3,15.6,74,0.00,,,-99.99,Meteorologica,2013-02-11 02:45:00,
2013-02-10 20:50:00,37.1,30.1,29.83,NW,309,6.7,9.5,75,0.00,,,-99.99,Meteorologica,2013-02-11 02:50:00,
2013-02-10 20:55:00,37.1,30.1,29.84,WNW,285,6.1,10.7,75,0.00,,,-99.99,Meteorologica,2013-02-11 02:55:00,
2013-02-10 21:00:00,36.9,29.8,29.84,WNW,287,5.7,8.7,75,0.00,,,-99.99,Meteorologica,2013-02-11 03:00:00,
2013-02-10 21:05:00,37.1,30.3,29.84,WNW,291,7.2,11.3,76,0.00,,,-99.99,Meteorologica,2013-02-11 03:05:00,
2013-02-10 21:10:00,36.9,30.2,29.85,WNW,283,8.6,12.2,76,0.00,,,-99.99,Meteorologica,2013-02-11 03:10:00,
2013-02-10 21:15:00,37.1,30.3,29.85,WNW,303,8.5,12.5,76,0.00,,,-99.99,Meteorologica,2013-02-11 03:15:00,
2013-02-10 21:20:00,37.1,30.2,29.85,WNW,300,9.6,14.3,75,0.00,,,-99.99,Meteorologica,2013-02-11 03:20:00,
2013-02-10 21:25:00,37.3,30.5,29.86,NW,313,8.7,13.1,76,0.00,,,-99.99,Meteorologica,2013-02-11 03:25:00,
2013-02-10 21:30:00,37.6,30.8,29.87,WNW,301,9.8,16.6,76,0.00,,,-99.99,Meteorologica,2013-02-11 03:30:00,
2013-02-10 21:35:00,37.8,30.5,29.87,NW,311,8.1,15.0,74,0.00,,,-99.99,Meteorologica,2013-02-11 03:35:00,
2013-02-10 21:40:00,38.3,30.6,29.87,WNW,292,8.5,11.8,73,0.00,,,-99.99,Meteorologica,2013-02-11 03:40:00,
2013-02-10 21:45:00,38.5,30.7,29.87,WNW,303,5.1,7.8,73,0.00,,,-99.99,Meteorologica,2013-02-11 03:45:00,
2013-02-10 21:50:00,38.6,30.8,29.88,NW,306,4.9,7.8,73,0.00,,,-99.99,Meteorologica,2013-02-11 03:50:00,
2013-02-10 21:55:00,38.7,31.0,29.87,WNW,300,6.3,12.1,73,0.00,,,-99.99,Meteorologica,2013-02-11 03:55:00,
2013-02-10 22:00:00,38.8,31.0,29.88,WNW,303,6.2,9.5,73,0.00,,,-99.99,Meteorologica,2013-02-11 04:00:00,
2013-02-10 22:05:00,38.9,30.9,29.87,WNW,303,8.3,20.7,72,0.00,,,-99.99,Meteorologica,2013-02-11 04:05:00,
2013-02-10 22:10:00,38.9,30.2,29.88,NW,304,12.6,24.4,70,0.00,,,-99.99,Meteorologica,2013-02-11 04:10:00,
2013-02-10 22:15:00,38.8,30.2,29.88,WNW,294,9.2,13.0,70,0.00,,,-99.99,Meteorologica,2013-02-11 04:15:00,
2013-02-10 22:20:00,38.5,30.0,29.88,NW,315,10.7,25.9,71,0.00,,,-99.99,Meteorologica,2013-02-11 04:20:00,
2013-02-10 22:25:00,38.4,29.6,29.89,WNW,292,12.0,23.7,70,0.00,,,-99.99,Meteorologica,2013-02-11 04:25:00,
2013-02-10 22:30:00,38.4,29.7,29.88,NW,311,8.5,11.7,70,0.00,,,-99.99,Meteorologica,2013-02-11 04:30:00,
2013-02-10 22:35:00,38.4,29.6,29.89,WNW,301,6.8,13.4,70,0.00,,,-99.99,Meteorologica,2013-02-11 04:35:00,
2013-02-10 22:40:00,38.4,29.6,29.90,WNW,295,7.6,11.3,70,0.00,,,-99.99,Meteorologica,2013-02-11 04:40:00,
2013-02-10 22:45:00,38.4,29.8,29.90,West,270,7.4,10.6,70,0.00,,,-99.99,Meteorologica,2013-02-11 04:45:00,
2013-02-10 22:50:00,38.3,29.9,29.91,West,268,6.0,9.3,71,0.00,,,-99.99,Meteorologica,2013-02-11 04:50:00,
2013-02-10 22:55:00,38.2,29.9,29.91,NW,309,7.0,9.9,71,0.00,,,-99.99,Meteorologica,2013-02-11 04:55:00,
2013-02-10 23:01:00,38.2,30.1,29.91,NW,310,7.7,13.6,72,0.00,,,-99.99,Meteorologica,2013-02-11 05:01:00,
2013-02-10 23:02:00,38.1,29.9,29.91,WNW,303,7.2,13.6,71,0.00,,,-99.99,Meteorologica,2013-02-11 05:02:00,
2013-02-10 23:07:00,38.0,29.7,29.91,NW,305,8.4,20.6,71,0.00,,,-99.99,Meteorologica,2013-02-11 05:07:00,
2013-02-10 23:09:00,38.0,29.8,29.91,WSW,255,7.6,7.6,72,0.00,,,-99.99,Meteorologica,2013-02-11 05:09:00,
2013-02-10 23:14:00,37.7,29.6,29.91,WNW,300,10.0,12.4,72,0.00,,,-99.99,Meteorologica,2013-02-11 05:14:00,
2013-02-10 23:19:00,37.6,29.8,29.91,WNW,284,6.3,10.8,73,0.00,,,-99.99,Meteorologica,2013-02-11 05:19:00,
2013-02-10 23:24:00,37.1,29.4,29.92,West,268,9.3,11.0,73,0.00,,,-99.99,Meteorologica,2013-02-11 05:24:00,
2013-02-10 23:29:00,37.1,29.6,29.92,WNW,284,6.2,11.0,73,0.00,,,-99.99,Meteorologica,2013-02-11 05:29:00,
2013-02-10 23:34:00,36.8,29.3,29.92,WNW,301,6.9,9.2,73,0.00,,,-99.99,Meteorologica,2013-02-11 05:34:00,
2013-02-10 23:39:00,36.6,29.1,29.92,WNW,292,7.8,7.8,73,0.00,,,-99.99,Meteorologica,2013-02-11 05:39:00,
2013-02-10 23:42:00,36.5,29.1,29.93,NW,311,8.3,14.8,74,0.00,,,-99.99,Meteorologica,2013-02-11 05:42:00,
2013-02-10 23:47:00,36.2,28.9,29.93,NW,304,7.9,13.3,74,0.00,,,-99.99,Meteorologica,2013-02-11 05:47:00,
2013-02-10 23:53:00,36.2,28.9,29.93,West,262,7.2,15.1,74,0.00,,,-99.99,Meteorologica,2013-02-11 05:53:00,
2013-02-10 23:58:00,36.1,28.6,29.93,West,280,8.9,16.6,73,0.00,,,-99.99,Meteorologica,2013-02-11 05:58:00,